CFOXX CAZ5-CYKA

Flight info

Callsign CFOXX
Flight time 0h 18m
Altitude 5000
Route VFR
Aircraft C208/L-SDF/C

Departure

Time 2026-04-15 13:58
Airport Cache Creek-Ashcroft Regional Airport (CAZ5)

Arrival

Time 2026-04-15 14:16
Airport Kamloops John Moose Fulton Field Regional Airport (CYKA)
Time Latitude Longitude Altitude Speed Heading
2026-04-15 13:51 50.78062 -121.32427 2166 ft 0 kts 260°
2026-04-15 13:54 50.78057 -121.32436 2171 ft 3 kts 198°
2026-04-15 13:54 50.78021 -121.32429 2173 ft 6 kts 168°
2026-04-15 13:54 50.77977 -121.32391 2177 ft 8 kts 133°
2026-04-15 13:55 50.77952 -121.32346 2176 ft 1 kts 129°
2026-04-15 13:55 50.77947 -121.32338 2176 ft 0 kts 129°
2026-04-15 13:55 50.77946 -121.32335 2176 ft 3 kts 128°
2026-04-15 13:55 50.77919 -121.32270 2174 ft 7 kts 90°
2026-04-15 13:56 50.77909 -121.32241 2173 ft 0 kts 169°
2026-04-15 13:56 50.77839 -121.32220 2172 ft 31 kts 169°
2026-04-15 13:56 50.77479 -121.32115 2167 ft 72 kts 168°
2026-04-15 13:57 50.76902 -121.31923 2205 ft 91 kts 168°
2026-04-15 13:57 50.76288 -121.31686 2333 ft 91 kts 161°
2026-04-15 13:57 50.75730 -121.31160 2449 ft 95 kts 145°
2026-04-15 13:57 50.75166 -121.30594 2561 ft 99 kts 148°
2026-04-15 13:58 50.74598 -121.29950 2647 ft 103 kts 123°
2026-04-15 13:58 50.74330 -121.28905 2735 ft 105 kts 108°
2026-04-15 13:58 50.74051 -121.27775 2819 ft 114 kts 109°
2026-04-15 13:58 50.73754 -121.26574 2938 ft 121 kts 112°
2026-04-15 13:59 50.73428 -121.25316 3085 ft 127 kts 110°
2026-04-15 13:59 50.73131 -121.23975 3228 ft 132 kts 97°
2026-04-15 13:59 50.73308 -121.22578 3388 ft 133 kts 69°
2026-04-15 13:59 50.73612 -121.21197 3554 ft 137 kts 68°
2026-04-15 14:00 50.73973 -121.19787 3734 ft 140 kts 60°
2026-04-15 14:00 50.74425 -121.18404 3905 ft 143 kts 58°
2026-04-15 14:00 50.74899 -121.17014 4055 ft 144 kts 58°
2026-04-15 14:00 50.75382 -121.15635 4190 ft 141 kts 58°
2026-04-15 14:01 50.76250 -121.13120 4455 ft 123 kts 57°
2026-04-15 14:01 50.76646 -121.11954 4587 ft 117 kts 57°
2026-04-15 14:01 50.77024 -121.10843 4719 ft 113 kts 57°
2026-04-15 14:02 50.77386 -121.09770 4849 ft 109 kts 57°
2026-04-15 14:02 50.77739 -121.08713 4940 ft 109 kts 57°
2026-04-15 14:02 50.78053 -121.07598 4975 ft 115 kts 74°
2026-04-15 14:02 50.77928 -121.06338 4988 ft 123 kts 116°
2026-04-15 14:03 50.77349 -121.05310 5004 ft 128 kts 135°
2026-04-15 14:03 50.76667 -121.04390 5010 ft 130 kts 137°
2026-04-15 14:03 50.76030 -121.03374 5018 ft 130 kts 113°
2026-04-15 14:03 50.75725 -121.02028 4840 ft 131 kts 105°
2026-04-15 14:04 50.75481 -121.00704 4924 ft 123 kts 104°
2026-04-15 14:04 50.75256 -120.99391 4926 ft 129 kts 103°
2026-04-15 14:04 50.75018 -120.97993 4898 ft 137 kts 103°
2026-04-15 14:04 50.74767 -120.96467 4688 ft 149 kts 103°
2026-04-15 14:05 50.74502 -120.94835 4500 ft 156 kts 103°
2026-04-15 14:05 50.74303 -120.93123 4340 ft 160 kts 95°
2026-04-15 14:05 50.74327 -120.91367 4333 ft 160 kts 83°
2026-04-15 14:05 50.74446 -120.89638 4097 ft 157 kts 81°
2026-04-15 14:06 50.74593 -120.87933 3879 ft 156 kts 79°
2026-04-15 14:06 50.74752 -120.86238 3671 ft 156 kts 79°
2026-04-15 14:06 50.74914 -120.84566 3559 ft 150 kts 78°
2026-04-15 14:06 50.75076 -120.82973 3514 ft 144 kts 79°
2026-04-15 14:07 50.75237 -120.81446 3508 ft 139 kts 79°
2026-04-15 14:07 50.75392 -120.79962 3499 ft 136 kts 79°
2026-04-15 14:07 50.75539 -120.78517 3498 ft 133 kts 79°
2026-04-15 14:07 50.75684 -120.77100 3504 ft 129 kts 79°
2026-04-15 14:08 50.75830 -120.75712 3493 ft 127 kts 79°
2026-04-15 14:08 50.75967 -120.74347 3480 ft 124 kts 79°
2026-04-15 14:08 50.75966 -120.73009 3477 ft 122 kts 100°
2026-04-15 14:08 50.75804 -120.71713 3482 ft 119 kts 101°
2026-04-15 14:09 50.75624 -120.70434 3495 ft 121 kts 102°
2026-04-15 14:09 50.75424 -120.69091 3500 ft 131 kts 102°
2026-04-15 14:09 50.75203 -120.67657 3502 ft 138 kts 103°
2026-04-15 14:09 50.74932 -120.66179 3497 ft 143 kts 113°
2026-04-15 14:10 50.74504 -120.64742 3487 ft 146 kts 116°
2026-04-15 14:10 50.74037 -120.63307 3488 ft 148 kts 118°
2026-04-15 14:10 50.73549 -120.61865 3479 ft 150 kts 118°
2026-04-15 14:10 50.73047 -120.60421 3482 ft 150 kts 118°
2026-04-15 14:11 50.72537 -120.58974 3492 ft 150 kts 119°
2026-04-15 14:11 50.72028 -120.57536 3481 ft 151 kts 119°
2026-04-15 14:11 50.71519 -120.56099 3487 ft 150 kts 119°
2026-04-15 14:11 50.71012 -120.54665 3494 ft 148 kts 119°
2026-04-15 14:12 50.70518 -120.53247 3490 ft 147 kts 118°
2026-04-15 14:12 50.70026 -120.51848 3487 ft 146 kts 119°
2026-04-15 14:12 50.69642 -120.50372 3490 ft 145 kts 108°
2026-04-15 14:12 50.69329 -120.48843 3398 ft 149 kts 107°
2026-04-15 14:13 50.69030 -120.47247 3237 ft 154 kts 105°
2026-04-15 14:13 50.68744 -120.45608 3075 ft 156 kts 105°
2026-04-15 14:13 50.68471 -120.43975 2801 ft 154 kts 105°
2026-04-15 14:13 50.68207 -120.42388 2560 ft 145 kts 105°
2026-04-15 14:14 50.67981 -120.40865 2327 ft 140 kts 95°
2026-04-15 14:14 50.68317 -120.39552 2206 ft 128 kts 35°
2026-04-15 14:14 50.69096 -120.39269 2161 ft 110 kts 342°
2026-04-15 14:14 50.69645 -120.39978 2036 ft 106 kts 290°
2026-04-15 14:15 50.69786 -120.41057 1840 ft 93 kts 281°
2026-04-15 14:15 50.69891 -120.41992 1552 ft 83 kts 278°
2026-04-15 14:15 50.70009 -120.42870 1261 ft 79 kts 282°
2026-04-15 14:15 50.70123 -120.43651 1134 ft 63 kts 282°
2026-04-15 14:16 50.70203 -120.44190 1134 ft 30 kts 284°
2026-04-15 14:16 50.70251 -120.44395 1133 ft 17 kts 354°
2026-04-15 14:16 50.70342 -120.44343 1135 ft 15 kts 60°
2026-04-15 14:16 50.70394 -120.44184 1133 ft 15 kts 61°
2026-04-15 14:17 50.70443 -120.44051 1135 ft 13 kts 52°
2026-04-15 14:17 50.70512 -120.43990 1134 ft 10 kts 28°
2026-04-15 14:17 50.70564 -120.43886 1133 ft 15 kts 59°
2026-04-15 14:17 50.70566 -120.43778 1136 ft 9 kts 116°
2026-04-15 14:18 50.70570 -120.43741 1133 ft 0 kts 64°